Syracuse, NY

12:32 PM EST on November 20, 2019 (GMT -0500)
Syracuse Hancock International

Weather History for KSYR - September, 2019

Change the Weather History Date:

Tuesday, September 3, 2019

  Actual Average Record
Temperature  
Mean Temperature 68 °F 66 °F  
Max Temperature 78 °F 77 °F 97 °F (1953)
Min Temperature 60 °F 56 °F 39 °F (1941)
Degree Days  
Heating Degree Days 0 2  
Month to date heating degree days 5  
Since 1 July heating degree days 31  
Cooling Degree Days 4 3  
Month to date cooling degree days 10  
Year to date cooling degree days 523  
Growing Degree Days 18 (Base 50)    
Moisture  
Dew Point 60 °F    
Average Humidity 78    
Maximum Humidity 93    
Minimum Humidity 52    
Precipitation  
Precipitation 0.00 in 0.12 in 1.88 in (1974)
Month to date precipitation 0.36  
Year to date precipitation 24.95  
Snow  
Snow - 0.00 in 0.00 in (2002)
Month to date snowfall 0.0  
Since 1 July snowfall 0.0  
Since 1 September snowfall 0.0  
Snow Depth -    
Sea Level Pressure  
Sea Level Pressure 30.02 in    
Wind  
Wind Speed 3 mph ()    
Max Wind Speed 17 mph    
Max Gust Speed 25 mph    
Visibility 9.7 miles    
Events Fog , Rain    
T = Trace of Precipitation, MM = Missing Value Source: Averaged Metar Reports

Daily Weather History Graph

Daily Weather History Graph

Search for Another Location

Airport or City:

Astronomy

Sep. 03, 2019 Rise Set
Actual Time 6:30 AM EDT 7:36 PM EDT
Civil Twilight 6:01 AM EDT 8:05 PM EDT
Nautical Twilight 5:26 AM EDT 8:40 PM EDT
Astronomical Twilight 4:49 AM EDT 9:16 PM EDT
Moon 11:28 AM EDT (9/3) 10:23 PM EDT (9/3)
Length of Visible Light 14h 03m
Length of Day
13h 05m
Waxing Crescent, 24% of the Moon is Illuminated
Sep 3
Waxing Crescent
Sep 5
First Quarter
Sep 14
Full
Sep 21
Last Quarter
Sep 28
New

Hourly Weather History & Observations

Time (EDT) Temp. Dew Point Humidity Pressure Visibility Wind Dir Wind Speed Gust Speed Precip Events Conditions
12:54 AM 61.0 °F 57.0 °F 87% 30.04 in 10.0 mi SSE 3.5 mph - N/A   Mostly Cloudy
1:54 AM 61.0 °F 57.9 °F 90% 30.02 in 10.0 mi NE 3.5 mph - 0.00 in Rain Light Rain
2:33 AM 62.1 °F 57.9 °F 86% 30.04 in 10.0 mi Calm Calm - 0.00 in   Overcast
2:54 AM 61.0 °F 57.9 °F 90% 30.01 in 10.0 mi Calm Calm - 0.00 in   Overcast
3:54 AM 62.1 °F 59.0 °F 90% 30.01 in 10.0 mi SSW 4.6 mph - N/A   Mostly Cloudy
4:01 AM 63.0 °F 59.0 °F 87% 30.02 in 10.0 mi South 4.6 mph - N/A   Overcast
4:28 AM 63.0 °F 59.0 °F 87% 30.02 in 10.0 mi SW 3.5 mph - N/A   Overcast
4:54 AM 62.1 °F 59.0 °F 90% 30.01 in 10.0 mi SSW 4.6 mph - N/A   Mostly Cloudy
5:20 AM 62.1 °F 57.9 °F 86% 30.03 in 10.0 mi Calm Calm - N/A   Mostly Cloudy
5:54 AM 61.0 °F 57.9 °F 90% 30.03 in 10.0 mi Calm Calm - N/A   Mostly Cloudy
6:21 AM 60.1 °F 57.9 °F 93% 30.06 in 9.0 mi NNW 3.5 mph - N/A Fog Shallow Fog
6:54 AM 61.0 °F 59.0 °F 93% 30.06 in 9.0 mi Calm Calm - N/A Fog Shallow Fog
7:01 AM 60.1 °F 57.0 °F 90% 30.08 in 9.0 mi Calm Calm - N/A Fog Shallow Fog
7:16 AM 61.0 °F 57.9 °F 90% 30.08 in 8.0 mi Calm Calm - N/A   Mostly Cloudy
7:54 AM 63.0 °F 60.1 °F 90% 30.07 in 8.0 mi Calm Calm - N/A   Overcast
8:00 AM 63.0 °F 60.1 °F 90% 30.08 in 8.0 mi North 3.5 mph - N/A   Overcast
8:23 AM 62.1 °F 60.1 °F 93% 30.08 in 9.0 mi Calm Calm - N/A   Overcast
8:54 AM 63.0 °F 60.1 °F 90% 30.07 in 10.0 mi NE 4.6 mph - N/A   Overcast
9:54 AM 64.9 °F 61.0 °F 87% 30.07 in 9.0 mi East 3.5 mph - N/A   Overcast
10:35 AM 66.0 °F 61.0 °F 84% 30.07 in 10.0 mi East 4.6 mph - N/A   Mostly Cloudy
10:46 AM 68.0 °F 62.1 °F 81% 30.07 in 10.0 mi ENE 4.6 mph - N/A   Scattered Clouds
10:54 AM 69.1 °F 62.1 °F 78% 30.06 in 10.0 mi Variable 3.5 mph - N/A   Scattered Clouds
11:28 AM 71.6 °F 62.6 °F 73% 30.07 in 10.0 mi Variable 3.5 mph - N/A   Mostly Cloudy
11:42 AM 73.0 °F 61.0 °F 66% 30.07 in 10.0 mi NNW 4.6 mph - N/A   Mostly Cloudy
11:54 AM 70.0 °F 61.0 °F 73% 30.06 in 10.0 mi North 4.6 mph - N/A   Mostly Cloudy
12:43 PM 73.0 °F 61.0 °F 66% 30.05 in 10.0 mi SE 5.8 mph - N/A   Mostly Cloudy
12:54 PM 72.0 °F 60.1 °F 66% 30.03 in 10.0 mi NE 4.6 mph - N/A   Mostly Cloudy
1:01 PM 73.9 °F 61.0 °F 64% 30.04 in 10.0 mi NNE 3.5 mph - N/A   Mostly Cloudy
1:54 PM 75.9 °F 59.0 °F 56% 30.02 in 10.0 mi Calm Calm - N/A   Mostly Cloudy
2:54 PM 75.9 °F 59.0 °F 56% 29.99 in 10.0 mi Calm Calm - N/A   Mostly Cloudy
3:54 PM 77.0 °F 57.9 °F 52% 29.96 in 10.0 mi SSE 10.4 mph - N/A   Mostly Cloudy
4:54 PM 77.0 °F 63.0 °F 62% 29.94 in 10.0 mi NE 4.6 mph - N/A   Mostly Cloudy
5:54 PM 75.0 °F 62.1 °F 64% 29.91 in 10.0 mi East 6.9 mph - N/A   Mostly Cloudy
6:54 PM 75.0 °F 59.0 °F 57% 29.92 in 10.0 mi SE 5.8 mph - N/A   Mostly Cloudy
7:54 PM 71.1 °F 60.1 °F 68% 29.91 in 10.0 mi ESE 8.1 mph - N/A   Mostly Cloudy
8:54 PM 69.1 °F 60.1 °F 73% 29.92 in 10.0 mi ESE 6.9 mph - N/A   Mostly Cloudy
9:54 PM 68.0 °F 61.0 °F 78% 29.90 in 10.0 mi ESE 6.9 mph - N/A   Scattered Clouds
10:54 PM 73.0 °F 60.1 °F 64% 29.87 in 10.0 mi SSE 8.1 mph - N/A   Scattered Clouds
11:54 PM 75.0 °F 59.0 °F 57% 29.85 in 10.0 mi South 17.3 mph 25.3 mph N/A   Mostly Cloudy